St-Nazaire, France

6:11 AM CEST on April 24, 2017 (GMT +0200)
Montoir

Weather History for LFRZ - February, 2013

Change the Weather History Date:

Tuesday, February 26, 2013

  Actual Average Record
Temperature  
Mean Temperature 38 °F -  
Max Temperature 41 °F 52 °F 59 °F (2008)
Min Temperature 35 °F 40 °F 28 °F (2004)
Degree Days  
Heating Degree Days 27    
Moisture  
Dew Point 33 °F    
Average Humidity 81    
Maximum Humidity 93    
Minimum Humidity 65    
Precipitation  
Precipitation 0.00 in - - ()
Sea Level Pressure  
Sea Level Pressure 30.29 in    
Wind  
Wind Speed 10 mph ()    
Max Wind Speed 17 mph    
Max Gust Speed -    
Visibility 5.2 miles    
Events Rain    
Averages and records for this station are not official NWS values.
T = Trace of Precipitation, MM = Missing Value Source: Averaged Metar Reports

Daily Weather History Graph

Daily Weather History Graph

Search for Another Location

Airport or City:

Trip Planner

Search our weather history database for the weather conditions in past years. The results will help you decide how hot, cold, wet, or windy it might be!

Date:

Astronomy

Feb. 26, 2013 Rise Set
Actual Time 7:54 AM CET 6:49 PM CET
Civil Twilight 7:23 AM CET 7:20 PM CET
Nautical Twilight 6:48 AM CET 7:55 PM CET
Astronomical Twilight 6:12 AM CET 8:31 PM CET
Moon 7:58 PM CET (2/26) 7:43 AM CET (2/26)
Length of Visible Light 11h 56m
Length of Day
10h 54m
Full, 100% of the Moon is Illuminated
Feb 26
Full
Mar 4
Last Quarter
Mar 11
New
Mar 19
First Quarter
Mar 27
Full

Hourly Weather History & Observations

Time (CET) Temp. Windchill Dew Point Humidity Pressure Visibility Wind Dir Wind Speed Gust Speed Precip Events Conditions
12:00 AM 41.0 °F 34.3 °F 35.6 °F 81% 30.27 in 6.2 mi North 11.5 mph - N/A Rain Light Rain
12:30 AM 41.0 °F 33.9 °F 35.6 °F 81% 30.27 in 6.2 mi North 12.7 mph - N/A   Light Drizzle
1:00 AM 39.2 °F 32.0 °F 35.6 °F 87% 30.24 in 5.0 mi North 11.5 mph - N/A Rain Light Rain
1:30 AM 39.2 °F 32.5 °F 35.6 °F 87% 30.24 in 5.0 mi North 10.4 mph - N/A   Light Drizzle
2:00 AM 39.2 °F 33.0 °F 35.6 °F 87% 30.24 in 4.3 mi North 9.2 mph - N/A Rain Light Rain
2:30 AM 39.2 °F 33.0 °F 35.6 °F 87% 30.24 in 3.1 mi North 9.2 mph - N/A Rain Light Rain
3:00 AM 39.2 °F 32.5 °F 35.6 °F 87% 30.24 in 3.1 mi North 10.4 mph - N/A Rain Light Rain
3:30 AM 39.2 °F 33.0 °F 35.6 °F 87% 30.24 in 3.7 mi NNW 9.2 mph - N/A Rain Light Rain
4:00 AM 39.2 °F 33.6 °F 35.6 °F 87% 30.21 in 3.1 mi NNW 8.1 mph - N/A Rain Light Rain
4:30 AM 39.2 °F 33.6 °F 37.4 °F 93% 30.21 in 3.1 mi NNW 8.1 mph - N/A Rain Light Rain
5:00 AM 39.2 °F 33.6 °F 37.4 °F 93% 30.21 in - NNW 8.1 mph - N/A Rain Light Rain
5:30 AM 39.2 °F 33.6 °F 37.4 °F 93% 30.21 in - North 8.1 mph - N/A Rain Light Rain
6:00 AM 39.2 °F 33.6 °F 37.4 °F 93% 30.21 in - North 8.1 mph - N/A Rain Light Rain
6:30 AM 39.2 °F 32.5 °F 37.4 °F 93% 30.21 in 3.7 mi North 10.4 mph - N/A Rain Light Rain
7:00 AM 39.2 °F 33.6 °F 37.4 °F 93% 30.21 in 5.0 mi North 8.1 mph - N/A   Light Drizzle
7:30 AM 39.2 °F 33.0 °F 37.4 °F 93% 30.21 in 3.7 mi North 9.2 mph - N/A Rain Light Rain
8:00 AM 39.2 °F 33.0 °F 37.4 °F 93% 30.21 in 6.2 mi NNE 9.2 mph - N/A Rain Light Rain
8:30 AM 39.2 °F 32.5 °F 37.4 °F 93% 30.21 in 6.2 mi NE 10.4 mph - N/A Rain Light Rain
9:00 AM 37.4 °F 28.9 °F 33.8 °F 87% 30.24 in 6.2 mi East 13.8 mph - N/A Rain Light Rain
9:30 AM 37.4 °F 30.3 °F 35.6 °F 93% 30.24 in 6.2 mi ENE 10.4 mph - N/A   Overcast
10:00 AM 37.4 °F 30.3 °F 35.6 °F 93% 30.27 in 6.2 mi ENE 10.4 mph - N/A   Overcast
10:30 AM 37.4 °F 28.9 °F 33.8 °F 87% 30.27 in 6.2 mi ENE 13.8 mph - N/A   Overcast
11:00 AM 37.4 °F 29.3 °F 33.8 °F 87% 30.27 in 6.2 mi ENE 12.7 mph - N/A   Overcast
11:30 AM 37.4 °F 28.9 °F 32.0 °F 81% 30.30 in 6.2 mi ENE 13.8 mph - N/A   Overcast
12:00 PM 37.4 °F 28.5 °F 32.0 °F 81% 30.30 in 6.2 mi ENE 15.0 mph - N/A   Overcast
12:30 PM 37.4 °F 28.2 °F 32.0 °F 81% 30.30 in 6.2 mi East 16.1 mph - N/A   Overcast
1:00 PM 39.2 °F 31.2 °F 32.0 °F 75% 30.33 in 6.2 mi ENE 13.8 mph - N/A   Overcast
1:30 PM 39.2 °F 31.2 °F 32.0 °F 75% 30.30 in 6.2 mi ENE 13.8 mph - N/A   Overcast
2:00 PM 39.2 °F 30.5 °F 32.0 °F 75% 30.30 in 6.2 mi ENE 16.1 mph - N/A   Overcast
2:30 PM 39.2 °F 31.2 °F 32.0 °F 75% 30.33 in 6.2 mi NE 13.8 mph - N/A   Overcast
3:00 PM 39.2 °F 31.2 °F 32.0 °F 75% 30.33 in 6.2 mi NE 13.8 mph - N/A   Overcast
3:30 PM 39.2 °F 31.6 °F 30.2 °F 70% 30.30 in 6.2 mi ENE 12.7 mph - N/A   Mostly Cloudy
4:00 PM 41.0 °F 33.1 °F 30.2 °F 65% 30.30 in 6.2 mi ENE 15.0 mph - N/A   Overcast
4:30 PM 41.0 °F 33.1 °F 30.2 °F 65% 30.30 in 6.2 mi NE 15.0 mph - N/A   Overcast
5:00 PM 39.2 °F 30.2 °F 30.2 °F 70% 30.33 in 6.2 mi NE 17.3 mph - N/A   Mostly Cloudy
5:30 PM 39.2 °F 30.8 °F 28.4 °F 65% 30.33 in 5.6 mi NE 15.0 mph - N/A   Overcast
6:00 PM 39.2 °F 30.8 °F 28.4 °F 65% 30.33 in 5.6 mi NE 15.0 mph - N/A   Mostly Cloudy
6:30 PM 37.4 °F 30.8 °F 28.4 °F 70% 30.33 in 5.6 mi NE 9.2 mph - N/A   Unknown
7:00 PM 35.6 °F 31.7 °F 28.4 °F 75% 30.36 in 5.6 mi NE 4.6 mph - N/A   Partly Cloudy
7:30 PM 37.4 °F 32.8 °F 28.4 °F 70% 30.36 in 5.0 mi NNE 5.8 mph - N/A   Mostly Cloudy
8:00 PM 35.6 °F 31.7 °F 28.4 °F 75% 30.36 in 5.0 mi NNE 4.6 mph - N/A   Scattered Clouds
8:30 PM 35.6 °F 29.9 °F 28.4 °F 75% 30.36 in 4.3 mi NNE 6.9 mph - N/A   Mostly Cloudy
9:00 PM 35.6 °F 31.7 °F 28.4 °F 75% 30.39 in 4.3 mi NNE 4.6 mph - N/A   Mostly Cloudy
9:30 PM 35.6 °F 30.7 °F 28.4 °F 75% 30.39 in 3.7 mi NE 5.8 mph - N/A   Overcast
10:00 PM 37.4 °F 31.4 °F 30.2 °F 75% 30.39 in 4.3 mi NE 8.1 mph - N/A   Overcast
10:30 PM 37.4 °F 33.8 °F 30.2 °F 75% 30.39 in 4.3 mi NE 4.6 mph - N/A   Overcast
11:00 PM 35.6 °F 31.7 °F 28.4 °F 75% 30.39 in 4.3 mi NNE 4.6 mph - N/A   Overcast
11:30 PM 35.6 °F 31.7 °F 28.4 °F 75% 30.39 in 4.3 mi NNE 4.6 mph - N/A   Overcast